DW4360 Weather Reports


time (UTC)temp
C
wind
direction
speed
KPH
gust
KPH
rain 1hr
cm
rain 24hr
cm
rain mn
cm
humidity
%
barometer
mb
20260508080238 13 319 0.0 0.0 0.00 0.00 0.00 72 1015.6
20260508075237 13 319 0.0 0.0 0.00 0.00 0.00 71 1015.6
20260508074236 13 319 0.0 0.0 0.00 0.00 0.00 70 1015.6
20260508073235 13 319 0.0 0.0 0.00 0.00 0.00 69 1015.6
20260508072234 13 319 0.0 0.0 0.00 0.00 0.00 67 1015.6
20260508071233 14 319 0.0 0.0 0.00 0.00 0.00 67 1015.5
20260508070232 14 319 0.0 0.0 0.00 0.00 0.00 66 1015.5
20260508065231 14 319 0.0 0.0 0.00 0.00 0.00 65 1015.6
20260508064230 15 319 0.0 0.0 0.00 0.00 0.00 63 1015.5
20260508063229 15 319 0.0 0.0 0.00 0.00 0.00 63 1015.4
20260508062228 15 319 0.0 0.0 0.00 0.00 0.00 61 1015.4
20260508061227 15 319 0.0 0.0 0.00 0.00 0.00 61 1015.5
20260508060226 15 319 0.0 0.0 0.00 0.00 0.00 61 1015.5
20260508055225 15 319 0.0 0.0 0.00 0.00 0.00 61 1015.5
20260508054224 15 319 0.0 0.0 0.00 0.00 0.00 62 1015.4
20260508051221 16 319 0.0 0.0 0.00 0.00 0.00 63 1015.3
20260508050220 16 319 0.0 0.0 0.00 0.00 0.00 63 1015.3
20260508045219 16 319 0.0 0.0 0.00 0.00 0.00 61 1015.3
20260508044218 16 319 0.0 0.0 0.00 0.00 0.00 60 1015.3
20260508043217 17 319 0.0 0.0 0.00 0.00 0.00 58 1015.2
20260508042216 17 319 0.0 0.0 0.00 0.00 0.00 56 1015.2
20260508041215 18 319 0.0 0.0 0.00 0.00 0.00 56 1015.2
20260508040214 18 319 0.0 0.0 0.00 0.00 0.00 56 1015.1
20260508035213 18 319 0.0 0.0 0.00 0.00 0.00 52 1014.9
20260508034212 18 319 0.0 0.0 0.00 0.00 0.00 51 1014.8
20260508033211 19 319 3.2 0.0 0.00 0.00 0.00 48 1014.7
20260508032210 19 319 0.0 0.0 0.00 0.00 0.00 47 1014.6
20260508031208 20 319 0.0 0.0 0.00 0.00 0.00 45 1014.5
20260508030208 20 319 0.0 0.0 0.00 0.00 0.00 44 1014.4
20260508025206 20 319 0.0 0.0 0.00 0.00 0.00 44 1014.4
20260508023205 20 319 0.0 0.0 0.00 0.00 0.00 43 1014.5
20260508022204 21 319 0.0 0.0 0.00 0.00 0.00 42 1014.5
20260508021203 21 319 0.0 0.0 0.00 0.00 0.00 41 1014.4
20260508015200 21 319 0.0 0.0 0.00 0.00 0.00 40 1014.7
20260508014200 21 319 0.0 0.0 0.00 0.00 0.00 43 1014.8
20260508013158 21 345 0.0 0.0 0.00 0.00 0.00 43 1014.8
20260508012158 21 346 0.0 0.0 0.00 0.00 0.00 42 1014.9
20260508004153 22 92 0.0 0.0 0.00 0.00 0.00 36 1015.2
20260508003152 23 109 0.0 0.0 0.00 0.00 0.00 37 1015.3
20260508002152 24 345 0.0 0.0 0.00 0.00 0.00 36 1015.3
20260508001150 25 328 4.8 0.0 0.00 0.00 0.00 36 1015.4
20260507235148 25 196 0.0 0.0 0.00 0.00 0.00 34 1015.5
20260507234147 25 195 0.0 0.0 0.00 0.00 0.00 35 1015.6
20260507233147 25 216 0.0 0.0 0.00 0.00 0.00 35 1015.7
20260507232145 25 266 0.0 0.0 0.00 0.00 0.00 34 1015.9
20260507231145 24 313 0.0 0.0 0.00 0.00 0.00 34 1015.9
20260507230143 24 329 12.9 0.0 0.00 0.00 0.00 37 1016.1
20260507225142 23 44 0.0 0.0 0.00 0.00 0.00 37 1016.2
20260507224141 23 311 0.0 0.0 0.00 0.00 0.00 36 1016.2
20260507223140 24 314 0.0 0.0 0.00 0.00 0.00 37 1016.4
20260507222139 24 299 0.0 0.0 0.00 0.00 0.00 36 1016.6
20260507221138 24 250 0.0 0.0 0.00 0.00 0.00 38 1016.6
20260507220137 24 336 0.0 0.0 0.00 0.00 0.00 36 1016.8
20260507215136 23 257 0.0 0.0 0.00 0.00 0.00 38 1017.0
20260507214135 23 257 0.0 0.0 0.00 0.00 0.00 39 1017.0
20260507213134 23 259 0.0 0.0 0.00 0.00 0.00 39 1017.1
20260507212133 23 282 0.0 0.0 0.00 0.00 0.00 39 1017.3
20260507210131 22 25 0.0 0.0 0.00 0.00 0.00 43 1017.5
20260507205130 22 26 0.0 0.0 0.00 0.00 0.00 42 1017.6
20260507204129 22 312 0.0 0.0 0.00 0.00 0.00 44 1017.8
20260507203128 21 249 0.0 0.0 0.00 0.00 0.00 47 1017.9
20260507202127 21 301 0.0 0.0 0.00 0.00 0.00 47 1018.1
20260507200125 21 319 0.0 0.0 0.00 0.00 0.00 47 1018.3
20260507195124 20 316 0.0 0.0 0.00 0.00 0.00 49 1018.4
20260507194123 20 279 4.8 0.0 0.00 0.00 0.00 49 1018.5
20260507193122 20 329 0.0 0.0 0.00 0.00 0.00 49 1018.7
20260507192121 20 247 0.0 0.0 0.00 0.00 0.00 51 1018.8
20260507191120 20 253 1.6 0.0 0.00 0.00 0.00 50 1018.8
20260507185118 18 205 0.0 0.0 0.00 0.00 0.00 52 1019.1
20260507184117 18 325 0.0 0.0 0.00 0.00 0.00 51 1019.2
20260507183116 19 319 0.0 0.0 0.00 0.00 0.00 52 1019.2
20260507182115 19 304 0.0 0.0 0.00 0.00 0.00 54 1019.3
20260507180113 17 299 0.0 0.0 0.00 0.00 0.00 57 1019.5
20260507175112 17 327 0.0 0.0 0.00 0.00 0.00 59 1019.6
20260507174111 16 325 0.0 0.0 0.00 0.00 0.00 63 1019.7
20260507173110 15 320 0.0 0.0 0.00 0.00 0.00 66 1019.8
20260507172109 13 327 0.0 0.0 0.00 0.00 0.00 68 1019.8
20260507171108 13 317 0.0 0.0 0.00 0.00 0.00 69 1019.8
20260507170106 13 323 0.0 0.0 0.00 0.00 0.00 69 1019.9
20260507165106 13 308 0.0 0.0 0.00 0.00 0.00 69 1019.9
20260507164104 13 5 3.2 0.0 0.00 0.00 0.00 70 1020.0
20260507163104 12 52 0.0 0.0 0.00 0.00 0.00 71 1020.0
20260507162103 12 86 0.0 0.0 0.00 0.00 0.00 72 1020.0
20260507161102 12 321 0.0 0.0 0.00 0.00 0.00 72 1020.0
20260507160101 12 323 0.0 0.0 0.00 0.00 0.00 73 1020.0
20260507155100 12 325 3.2 0.0 0.00 0.00 0.00 73 1020.0
20260507154059 12 319 8.0 0.0 0.00 0.00 0.00 73 1020.1
20260507153058 12 315 0.0 0.0 0.00 0.00 0.00 73 1020.1
20260507152057 11 315 0.0 0.0 0.00 0.00 0.00 74 1020.1
20260507151055 11 313 0.0 0.0 0.00 0.00 0.00 74 1020.1
20260507150054 11 319 0.0 0.0 0.00 0.00 0.00 74 1020.0
20260507145053 11 329 3.2 0.0 0.00 0.00 0.00 77 1020.0
20260507143051 11 360 0.0 0.0 0.00 0.00 0.00 74 1019.9
20260507142050 11 323 0.0 0.0 0.00 0.00 0.00 75 1019.9
20260507141049 11 323 0.0 0.0 0.00 0.00 0.00 76 1019.8
20260507140049 11 323 0.0 0.0 0.00 0.00 0.00 76 1019.7
20260507135048 11 323 0.0 0.0 0.00 0.00 0.00 76 1019.6
20260507134047 11 323 0.0 0.0 0.00 0.00 0.00 76 1019.6
20260507133046 11 323 0.0 0.0 0.00 0.00 0.00 76 1019.6
20260507132045 11 323 0.0 0.0 0.00 0.00 0.00 76 1019.5
20260507131044 11 323 0.0 0.0 0.00 0.00 0.00 76 1019.5
20260507125041 11 323 0.0 0.0 0.00 0.00 0.00 76 1019.6
20260507120037 12 323 0.0 0.0 0.00 0.00 0.00 76 1019.7
20260507115035 12 323 0.0 0.0 0.00 0.00 0.00 76 1019.8
20260507114034 12 323 0.0 0.0 0.00 0.00 0.00 76 1019.8
20260507113033 12 323 0.0 0.0 0.00 0.00 0.00 76 1019.8
20260507111031 12 323 0.0 0.0 0.00 0.00 0.00 75 1019.8
20260507110030 12 319 0.0 0.0 0.00 0.00 0.00 75 1019.9
20260507103027 12 315 6.4 0.0 0.00 0.00 0.00 75 1020.0
20260507101025 12 321 0.0 0.0 0.00 0.00 0.00 76 1020.1
20260507093021 12 308 3.2 0.0 0.00 0.00 0.00 75 1020.4
20260507092020 12 331 0.0 0.0 0.00 0.00 0.00 74 1020.5
20260507091019 12 319 9.7 0.0 0.00 0.00 0.00 74 1020.5
20260507090018 12 321 0.0 0.0 0.00 0.00 0.00 74 1020.5
20260507085017 12 327 0.0 0.0 0.00 0.00 0.00 74 1020.5
20260507083015 12 325 0.0 0.0 0.00 0.00 0.00 74 1020.5
20260507082014 12 323 0.0 0.0 0.00 0.00 0.00 75 1020.6
20260507081013 12 325 0.0 0.0 0.00 0.00 0.00 75 1020.5